Regional Weather Roundup
Issued by NWS Mt. Holly, NJ

Home | Current Version | Previous Version | Text Only | Print | Product List | Glossary On
Versions: 1 2 3 4 5 6 7 8 9 10 11 12 13 14 15 16 17 18 19 20 21 22 23 24 25 26 27 28 29 30 31 32 33 34 35 36 37 38 39 40 41 42 43 44 45 46 47 48 49 50
000
ASUS41 KPHI 142312
RWRPHI

REGIONAL WEATHER ROUNDUP
NATIONAL WEATHER SERVICE MOUNT HOLLY NJ
600 PM EST SUN FEB 14 2016

NOTE:  "FAIR" INDICATES FEW OR NO CLOUDS BELOW 12,000 FEET WITH NO
SIGNIFICANT WEATHER AND/OR OBSTRUCTIONS TO VISIBILITY.

 * = STATION DOES NOT REPORT PRECIPITATION (E.G. RAIN, SNOW, ETC.)
        OR FOG.

NJZ015>026-150000-
SOUTHERN NEW JERSEY

CITY           SKY/WX    TMP DP  RH WIND       PRES   REMARKS
POMONA         CLEAR     14 -11  32 N5        30.53S WCI   6
WILDWOOD*      CLEAR     18   0  45 N3        30.53F
MILLVILLE      CLEAR     16  -4  41 NW5       30.53S WCI   9
WRIGHTSTOWN    PTCLDY    12  -9  37 W5        30.50S WCI   4
MOUNT HOLLY    CLEAR     14  -7  38 NW3       30.54S
TRENTON        CLEAR     14 -10  33 NW3       30.52R

$$
NJZ001>014-150000-
NORTHERN NEW JERSEY

CITY           SKY/WX    TMP DP  RH WIND       PRES   REMARKS
SUSSEX         CLEAR     11 -14  31 CALM      30.47R
ANDOVER*         N/A     10 -13  34 CALM      30.47R
MORRISTOWN     CLEAR     14 -11  31 N8        30.52R WCI   3
NEWARK         PTCLDY    16 -14  25 W9        30.53R WCI   4
TETERBORO      CLEAR     15 -15  25 NW9       30.52R WCI   3
CALDWELL       CLEAR     14 -15  26 CALM      30.52R
SOMERVILLE     CLEAR     14 -11  32 CALM      30.51R
ALLAIRE*       CLEAR     14 -13  29 W6        30.52R WCI   5
TOMS RIVER*    CLEAR     12  -9  37 NW5       30.54R WCI   4

$$
PAZ043-044-047-054-055-060>062-066>071-150000-
EASTERN PENNSYLVANIA

CITY           SKY/WX    TMP DP  RH WIND       PRES   REMARKS
PHILADELPHIA   PTCLDY    18 -10  28 NW6       30.53F WCI  10
NORTH PHILA    CLEAR     15  -7  37 NW6       30.55S WCI   6
BLUE BELL*       N/A     12  -4  48 CALM      30.51S
DOYLESTOWN     CLEAR     11 -10  38 NW5       30.49S WCI   3
QUAKERTOWN*    CLEAR     12  -8  40 CALM      30.50R
PERKASIE*      FAIR      10  -8  44 CALM      30.49R
POTTSTOWN      CLEAR     12  -6  44 CALM      30.52S
LANCASTER      CLOUDY    12  -3  51 E5        30.48F WCI   4
COATESVILLE    CLEAR     12  -4  48 CALM      30.47F
READING        CLEAR     14  -9  35 CALM      30.49F
ALLENTOWN      CLEAR     12  -8  40 SW5       30.49S WCI   4
MOUNT POCONO   CLEAR      4 -14  43 NW7       30.32R WCI  -8
HAZLETON       CLEAR      7  -9  47 CALM      30.39S
LEHIGHTON      FAIR      14  -8  37 CALM      30.49R
WILKES BARRE   CLEAR     10  -9  42 CALM      30.43R

$$
DEZALL-MDZ008-012-015-019-020-150000-
DELAWARE AND EASTERN MARYLAND

CITY           SKY/WX    TMP DP  RH WIND       PRES   REMARKS
WILMINGTON     CLEAR     14  -2  49 N5        30.53F WCI   6
DOVER          PTCLDY    16   1  51 N7        30.50F WCI   6
GEORGETOWN     CLOUDY    19   3  49 E7        30.52F WCI  10
EASTON         CLOUDY    21   0  39 CALM      30.55F
PATUXENT       MOCLDY    21   3  45 CALM      30.51F
OCEAN CITY     CLOUDY    20   3  48 NE5       30.53R WCI  13
WALLOPS ISLAND FAIR      22   2  42 E5        30.52S WCI  16
CAMBRIDGE      PTCLDY    21   0  39 CALM      30.51F
SALISBURY      CLOUDY    20  -1  40 CALM      30.51F

$$
PAZ001-021-NYZ056-072-MDZ011-DCZ001-150000-
OTHER NEARBY LOCATIONS

CITY           SKY/WX    TMP DP  RH WIND       PRES   REMARKS
HARRISBURG     CLOUDY    17  -2  43 E12       30.47F WCI   4
STATE COLLEGE  CLEAR     16  -2  45 CALM      30.36F
WILLIAMSPORT   CLEAR     13  -6  42 SE5       30.46S WCI   5
BINGHAMTON     CLEAR      3 -12  49 N3        30.36R
NEW YORK CITY  CLEAR     15 -15  25 VRB6      30.53R WCI   6
BALTIMORE      CLOUDY    21  -3  35 NE6       30.49S WCI  13
WASHINGTON DC  MOCLDY    24  -2  32 SE5       30.50F WCI  18

$$



USA.gov is the U.S. government's official web portal to all federal, state and local government web resources and services.